Location: Glendale
(37.4556°N, 88.6714°W)
Time: 19:54:46
(UTC+00:00)

Cosmos 1340 - Pass Details

Date: 08 December 2019
Orbit: 502 x 506 km, 81.2° (Epoch: 25 January)

Event Time Altitude Azimuth Distance (km) Brightness Sun altitude
Rises 11:35:53 0° 182° (S) 2,581 6.4 -15.6°
Reaches altitude 10° 11:38:00 10° 180° (S) 1,703 5.5 -15.2°
Maximum altitude 11:41:42 69° 97° (E) 540 2.9 -14.5°
Drops below altitude 10° 11:45:27 10° 14° (NNE) 1,719 5.3 -13.8°
Sets 11:47:35 0° 12° (NNE) 2,608 6.2 -13.4°
